This demonstration page uses our WeatherBlox Daily Observations layout. Learn more.

36.17497, -115.13722

Hourly Observations for November 10, 2019

Temp ( °F °C ) Dew Point ( °F °C ) Humidity (%) Winds ( mph kmh ) Pressure ( in mb ) Visibility ( mi km ) Precip ( " mm )
12:53 am 00:53 Clear 55 12.8 18 -7.8 23 23 VRB 5 7 30.08 1019 10 16.0934 0 0
1:53 am 01:53 Clear 56 13.3 16 -8.9 21 21 Calm 30.07 1018 10 16.0934 0 0
2:53 am 02:53 Clear 50 10 19 -7.2 29 29 WNW 7 11 30.07 1018 10 16.0934 0 0
3:53 am 03:53 Clear 51 10.6 14 -10 23 23 NW 6 9 30.08 1019 10 16.0934 0 0
4:53 am 04:53 Clear 48 8.9 19 -7.2 32 32 Calm 30.09 1019 10 16.0934 0 0
5:53 am 05:53 Clear 49 9.4 19 -7.2 31 31 WNW 7 11 30.09 1019 10 16.0934 0 0
6:53 am 06:53 Sunny 50 10 18 -7.8 28 28 W 5 7 30.11 1020 10 16.0934 0 0
7:53 am 07:53 Sunny 56 13.3 16 -8.9 21 21 WNW 5 7 30.12 1020 10 16.0934 0 0
8:53 am 08:53 Sunny 63 17.2 15 -9.4 15 15 Calm 30.11 1020 10 16.0934 0 0
9:53 am 09:53 Sunny 67 19.4 12 -11.1 12 12 N 6 9 30.1 1019 10 16.0934 0 0
10:53 am 10:53 Sunny 70 21.1 13 -10.6 11 11 Calm 30.09 1019 10 16.0934 0 0
11:53 am 11:53 Sunny 70 21.1 13 -10.6 11 11 S 5 7 30.05 1018 10 16.0934 0 0
12:53 pm 12:53 Sunny 73 22.8 13 -10.6 10 10 Calm 30.02 1017 10 16.0934 0 0
1:53 pm 13:53 Sunny 74 23.3 13 -10.6 9 9 Calm 30 1016 10 16.0934 0 0
2:53 pm 14:53 Sunny 75 23.9 13 -10.6 9 9 ESE 3 6 29.99 1016 10 16.0934 0 0
3:53 pm 15:53 Sunny 73 22.8 13 -10.6 10 10 SE 5 7 29.99 1016 10 16.0934 0 0
4:53 pm 16:53 Clear 70 21.1 15 -9.4 12 12 Calm 30 1016 10 16.0934 0 0
5:53 pm 17:53 Clear 65 18.3 19 -7.2 17 17 Calm 30.01 1016 10 16.0934 0 0
6:53 pm 18:53 Clear 63 17.2 23 -5 22 22 WSW 3 6 30.02 1017 10 16.0934 0 0
7:53 pm 19:53 Clear 58 14.4 24 -4.4 27 27 NW 7 11 30.02 1017 10 16.0934 0 0
8:53 pm 20:53 Clear 56 13.3 21 -6.1 26 26 WNW 7 11 30.02 1017 10 16.0934 0 0
9:53 pm 21:53 Clear 56 13.3 21 -6.1 26 26 WNW 7 11 30.03 1017 10 16.0934 0 0
10:53 pm 22:53 Clear 55 12.8 21 -6.1 26 26 NW 3 6 30.03 1017 10 16.0934 0 0
11:53 pm 23:53 Clear 56 13.3 15 -9.4 20 20 NNW 5 7 30.04 1017 10 16.0934 0 0

Powered by AerisWeather